Back to catalog

SL-14 DEB

AlivePO
NORAD 19234·DEBRIS·🇷🇺 Russia

Launched Oct 26, 1978 from Plesetsk Cosmodrome

Loading…

Next Passes (next 24 hours)

TLE

FreshSource: Space-Track

Epoch: Sep 14, 2026, 02:41 UTC

1 19234U 78100AD  26257.11245424  .00000829  00000-0  12541-1 0  9993
2 19234  82.4253 134.5702 0143935 233.4569 282.0466 11.80582543649390

Track SL-14 DEB in real time with AllMySat

Download on the App Store